Regional Weather Roundup
Issued by NWS

Home | Current Version | Previous Version | Text Only | Print | Product List | Glossary Off
Versions: 1 2 3 4 5 6 7 8 9 10 11 12 13 14 15 16 17 18 19 20 21 22 23 24 25 26 27 28 29 30 31 32 33 34 35 36 37 38 39 40 41 42 43 44 45 46 47 48 49 50

347
ASUS43 KLOT 220204
RWRIL

ILLINOIS REGIONAL WEATHER ROUNDUP
NATIONAL WEATHER SERVICE CHICAGO/ROMEOVILLE IL
900 PM CDT SAT OCT 21 2017

NOTE: "FAIR" INDICATES FEW OR NO CLOUDS BELOW 12,000 FEET WITH NO
SIGNIFICANT WEATHER AND/OR OBSTRUCTIONS TO VISIBILITY.

* THESE STATIONS ARE NOT UNDER NWS QUALITY CONTROL. THEY ALSO MAY NOT
  REPORT WEATHER SUCH AS PRECIPITATION OR FOG.

ILZ001-002-007-009-015-016-024-220300-
NORTHWEST ILLINOIS

CITY           SKY/WX    TMP DP  RH WIND       PRES   REMARKS
MOLINE         CLEAR     72  60  66 S12       29.87F
STERLING*      CLOUDY    72  59  63 S8          N/A
SAVANNA*       PTCLDY    71  60  69 S15       29.88F
$$

ILZ003-004-008-010-011-017-018-220300-
NORTH CENTRAL ILLINOIS

CITY           SKY/WX    TMP DP  RH WIND       PRES   REMARKS
ROCKFORD       CLOUDY    70  58  65 S16       29.95F
FREEPORT*      CLOUDY    70  58  67 S13G22    29.93F
ROCHELLE*      CLOUDY    69  59  71 S14       29.95F
$$

ILZ005-006-012>014-019>023-220300-
NORTHEAST ILLINOIS

CITY           SKY/WX    TMP DP  RH WIND       PRES   REMARKS
CHICAGO-OHARE  PTCLDY    70  57  63 S14       30.00S
CHICAGO-MIDWAY PTCLDY    71  58  63 S15G21    30.00F
AURORA         CLEAR     70  59  68 S14G25    29.99F
LANSING*       CLEAR     69  59  71 S15G21    30.04S
JOLIET*        PTCLDY    70  59  69 S8        30.00F
WAUKEGAN       CLEAR     70  58  65 S17       29.98F
DUPAGE AIRPORT PTCLDY    69  59  70 S13G24    29.98F
KANKAKEE*      CLEAR     67  56  67 S9        30.05S
WHEELING       CLEAR     71  59  65 S17       30.01S
NORTHERLY ISL    N/A     70  56  61 S14         N/A
$$

LMZ740>746-220300-
SOUTHERN LAKE MICHIGAN

STATION/POSITION SKY/WX   TEMP    WIND        PRES    VSBY  WAVE
                          AIR SEA DIR/SP/G                  HT/PER
                          (F)     (DEG/KT/KT) (MB)    (MI)  (FT/S)
SOUTHERN BUOY              64 61  140/ 16/ 17 1016.4          3/ 4
WILMETTE HARBOR            65 59  160/ 12/ 16   N/A           2/ 3
HARRISON CRIB              69     180/ 23/ 25   N/A
BURNHAM HARBOR             70     170/  8/ 18   N/A
CALUMET HARBOR             71     160/ 13/ 21 1015.9S
BURNS HARBOR               70     170/ 11/ 22 1017.6S
MICHIGAN CITY              70     150/ 13/ 15   N/A
MICHIGAN CITY 6N           67 58  180/ 16/ 19   N/A           1/ 2
ST. JOSEPH                 66 59  180/ 14/ 16 1017.7R         2/ 3
$$

ILZ025>027-034>036-040-047-049-050-058-095>099-220300-
WEST-CENTRAL ILLINOIS

CITY           SKY/WX    TMP DP  RH WIND       PRES   REMARKS
QUINCY         CLOUDY    75  61  61 S16G25    29.91F
MACOMB*        CLOUDY    71  60  67 S15       29.93F
JACKSONVILLE*  MOCLDY    71  58  63 SE12      29.97R
$$

ILZ028>032-037-038-041>044-048-051>054-059>061-220300-
CENTRAL ILLINOIS

CITY           SKY/WX    TMP DP  RH WIND       PRES   REMARKS
BLOOMINGTON    CLEAR     67  58  72 S17       30.02S
DECATUR        CLEAR     69  56  62 S12       30.03S
PEORIA         CLEAR     71  58  63 S16G28    29.96F
LACON*         PTCLDY    70  58  67 S14G20    29.95F
LINCOLN*       PTCLDY    70  59  69 S13G20    29.99S
SPRINGFIELD    MOCLDY    72  58  61 SE18G24   29.99S
TAYLORVILLE    CLEAR     68  56  65 SE12      30.01F
$$

ILZ033-039-045-046-055>057-062-063-220300-
EAST-CENTRAL ILLINOIS

CITY           SKY/WX    TMP DP  RH WIND       PRES   REMARKS
CHAMPAIGN      CLEAR     67  55  65 SE13      30.05F
DANVILLE*      CLEAR     65  55  68 SE9       30.06S
MATTOON        CLEAR     67  56  67 SE10      30.06S
PARIS*         PTCLDY    63  55  73 SE10      30.09F
$$

ILZ079-100>102-220300-
SOUTHWEST ILLINOIS

CITY           SKY/WX    TMP DP  RH WIND       PRES   REMARKS
ALTON          MOCLDY    70  59  68 SE14      29.98F
CAHOKIA*       MOCLDY    75  58  55 S14       29.97F
SPARTA*        CLEAR     70  59  67 SE8       30.03F
$$

ILZ064>066-069>071-074>076-080>082-084>086-088>090-092>094-220300-
SOUTH-CENTRAL ILLINOIS

CITY           SKY/WX    TMP DP  RH WIND       PRES   REMARKS
CARBONDALE     CLEAR     70  60  70 SE9       30.04F
EFFINGHAM*     CLEAR     68  57  67 SE12      30.07F
MARION         PTCLDY    71  59  66 S8        30.07S
CENTRALIA*     CLEAR     71  58  62 SE14G20   30.03S
SALEM*         CLEAR     71  55  56 SE7       30.05S
METROPOLIS*    PTCLDY    71  60  69 SE6       30.09S
$$

ILZ067-068-072-073-078-083-087-091-220300-
SOUTHEAST ILLINOIS

CITY           SKY/WX    TMP DP  RH WIND       PRES   REMARKS
LAWRENCEVILLE  CLEAR     66  54  65 SE12      30.11S
FLORA*         CLEAR     67  57  70 SE7       30.08S
FAIRFIELD*     CLEAR     68  56  66 SE5       30.07S
HARRISBURG*    CLEAR     67  58  73 SE9       30.09S
ROBINSON*      CLEAR     65  54  67 SE8       30.11S
CARMI*         CLEAR     67  56  68 SE9       30.09R
$$

ABBREVIATIONS USED IN REMARKS
   TC - TEMPERATURE IN CELSIUS
  WCI - WIND CHILL INDEX
   HX - HEAT INDEX
  VSB - VISIBILITY
$$





USA.gov is the U.S. government's official web portal to all federal, state and local government web resources and services.